Regional Weather Roundup
Issued by NWS

Home | Current Version | Previous Version | Graphics & Text | Print | Product List | Glossary Off
Versions: 1 2 3 4 5 6 7 8 9 10 11 12 13 14 15 16 17 18 19 20 21 22 23 24 25 26 27 28 29 30 31 32 33 34 35 36 37 38 39 40 41 42 43 44 45 46 47 48 49 50

000
ASUS43 KTOP 110708
RWRKS

WEATHER ROUNDUP FOR KANSAS
NATIONAL WEATHER SERVICE GOODLAND KS
100 AM CST SUN DEC 11 2016

NOTE:  "FAIR" INDICATES FEW OR NO CLOUDS BELOW 12,000 FEET WITH NO
SIGNIFICANT WEATHER AND/OR OBSTRUCTIONS TO VISIBILITY.

KSZ001>006-013>018-027>032-041>047-110800-
NORTHWEST KANSAS

CITY           SKY/WX    TMP DP  RH WIND       PRES   REMARKS
GOODLAND       CLOUDY    27  22  81 W8        29.65F
HAYS           CLOUDY    27  25  92 SE6       29.68F
HILL CITY      CLOUDY    24  21  88 NW3       29.68S
RUSSELL        CLOUDY    30  27  88 SE12      29.68F WCI  20
$$

KSZ061>065-074>080-084>089-110800-
SOUTHWEST KANSAS

CITY           SKY/WX    TMP DP  RH WIND       PRES   REMARKS
DODGE CITY     CLOUDY    36  34  92 S9        29.63F
ELKHART          N/A     48  18  30 W8          N/A
GARDEN CITY    CLOUDY    27  24  89 N12       29.63F WCI  17
GREAT BEND     CLOUDY    32  29  88 E3        29.70F
LIBERAL        CLOUDY    45  27  49 SW12      29.63F
PRATT          CLOUDY    33  31  91 S13G21    29.68F WCI  24
$$

KSZ066>073-081>083-090>101-110800-
SOUTHEAST KANSAS

CITY           SKY/WX    TMP DP  RH WIND       PRES   REMARKS
CHANUTE        CLOUDY    44  33  65 S20G32    29.90F
COFFEYVILLE    CLOUDY    45  31  58 S17G32    29.93F
HUTCHINSON     CLOUDY    39  34  82 S20       29.73F WCI  29
MEDICINE LODGE   N/A     37  34  89 SE13      29.71F WCI  29
NEWTON         CLOUDY    39  34  82 S22G33    29.76F WCI  29
PARSONS        CLOUDY    45  32  60 S15G24    29.92F
WICHITA INTL   CLOUDY    42  35  76 S22G30    29.77F
WICHITA JABRA  CLOUDY    40  35  83 S23G31    29.77F WCI  30
WICHITA MCCONL CLOUDY    41  35  80 S23G29    29.77F
WINFIELD       CLOUDY    43  36  76 S21G28    29.81F
$$

KSZ007>012-019>026-033>040-048>060-102>105-110800-
NORTHEAST KANSAS

CITY           SKY/WX    TMP DP  RH WIND       PRES   REMARKS
CONCORDIA      CLOUDY    33  26  75 SE13      29.73F WCI  24
EMPORIA        CLOUDY    39  30  70 S18       29.83F WCI  30
LAWRENCE       CLOUDY    38  26  62 SE10      29.89F WCI  31
MANHATTAN      CLOUDY    36  26  67 S5        29.80F
MARYSVILLE     CLOUDY    32  23  69 S12       29.78F WCI  23
OLATHE IND     CLOUDY    40  26  57 S17       29.89F WCI  31
OLATHE EXE     CLOUDY    39  26  59 MISG      29.89F
SALINA         CLOUDY    36  30  79 S10       29.76F WCI  28
TOPEKA BILLARD CLOUDY    38  26  62 SE8       29.86F
TOPEKA FORBES  MOCLDY    40  27  59 S14       29.85F WCI  32
$$



USA.gov is the U.S. government's official web portal to all federal, state and local government web resources and services.